EWG72L LEBB-LSGG

Flight info

Callsign EWG72L
Flight time N/A
Altitude 34000
Route PPN2H PPN DCT LATEK DCT GONUP DCT TOU DCT GAI DCT MEN DCT NINUN DCT LATAM DCT ETREK/N0458F300 DCT LUXAN G53 LTP Z16 BELUS BELUS4N
Aircraft A320/M-SDE3FGHIRWY/LB1

Departure

Time 2026-05-01 13:35
Airport Bilbao Airport (LEBB)

Arrival

Time N/A
Airport Geneva International Airport (LSGG)
Time Latitude Longitude Altitude Speed Heading
2026-05-01 13:07 43.30444 -2.90683 122 ft 0 kts 26°
2026-05-01 13:27 43.30444 -2.90684 127 ft 2 kts 26°
2026-05-01 13:27 43.30421 -2.90697 126 ft 4 kts 12°
2026-05-01 13:27 43.30370 -2.90686 126 ft 4 kts 319°
2026-05-01 13:28 43.30358 -2.90667 122 ft 0 kts 297°
2026-05-01 13:30 43.30392 -2.90758 123 ft 10 kts 297°
2026-05-01 13:31 43.30403 -2.90937 127 ft 8 kts 264°
2026-05-01 13:31 43.30346 -2.91193 126 ft 11 kts 297°
2026-05-01 13:32 43.30434 -2.91435 127 ft 21 kts 296°
2026-05-01 13:33 43.30675 -2.92095 128 ft 19 kts 297°
2026-05-01 13:33 43.30795 -2.92424 127 ft 14 kts 296°
2026-05-01 13:34 43.30724 -2.92494 127 ft 9 kts 161°
2026-05-01 13:34 43.30595 -2.92381 126 ft 15 kts 117°
2026-05-01 13:35 43.30196 -2.91292 127 ft 126 kts 117°
2026-05-01 13:35 43.29735 -2.90042 309 ft 155 kts 117°
2026-05-01 13:35 43.28719 -2.87310 1400 ft 172 kts 117°
2026-05-01 13:36 43.28157 -2.85805 1938 ft 182 kts 118°
2026-05-01 13:36 43.27564 -2.84222 2486 ft 190 kts 119°
2026-05-01 13:36 43.26315 -2.80901 3407 ft 205 kts 119°
2026-05-01 13:37 43.25643 -2.79130 3888 ft 214 kts 119°
2026-05-01 13:37 43.24931 -2.77294 4395 ft 224 kts 122°
2026-05-01 13:37 43.24075 -2.75417 4834 ft 240 kts 124°
2026-05-01 13:37 43.23150 -2.73432 5405 ft 254 kts 124°
2026-05-01 13:38 43.21128 -2.69232 7028 ft 270 kts 126°
2026-05-01 13:38 43.20062 -2.67083 8153 ft 274 kts 127°
2026-05-01 13:38 43.18972 -2.64903 9287 ft 282 kts 129°
2026-05-01 13:39 43.17848 -2.62662 10118 ft 288 kts 128°
2026-05-01 13:39 43.16689 -2.60355 10555 ft 305 kts 128°
2026-05-01 13:39 43.15439 -2.57866 10779 ft 328 kts 128°
2026-05-01 13:39 43.14104 -2.55196 10982 ft 350 kts 128°
2026-05-01 13:40 43.12715 -2.52400 11510 ft 359 kts 127°
2026-05-01 13:40 43.11308 -2.49555 12175 ft 363 kts 127°
2026-05-01 13:40 43.09884 -2.46672 12822 ft 368 kts 126°
2026-05-01 13:40 43.08443 -2.43762 13487 ft 372 kts 128°
2026-05-01 13:41 43.06979 -2.40821 14095 ft 376 kts 127°
2026-05-01 13:41 43.05501 -2.37858 14698 ft 379 kts 128°
2026-05-01 13:41 43.04028 -2.34909 15294 ft 382 kts 127°
2026-05-01 13:41 43.02499 -2.31855 15873 ft 386 kts 127°
2026-05-01 13:42 43.00991 -2.28856 16428 ft 390 kts 127°
2026-05-01 13:42 42.99444 -2.25783 16994 ft 394 kts 127°
2026-05-01 13:42 42.97889 -2.22682 17587 ft 397 kts 127°
2026-05-01 13:42 42.96364 -2.19518 18178 ft 401 kts 126°
2026-05-01 13:43 42.94860 -2.16281 18701 ft 405 kts 125°
2026-05-01 13:43 42.93366 -2.13009 19233 ft 408 kts 124°
2026-05-01 13:43 42.91863 -2.09709 19753 ft 411 kts 125°
2026-05-01 13:43 42.90341 -2.06392 20253 ft 414 kts 124°
2026-05-01 13:44 42.88801 -2.03065 20734 ft 416 kts 126°
2026-05-01 13:44 42.87240 -1.99724 21213 ft 419 kts 126°
2026-05-01 13:44 42.85662 -1.96364 21663 ft 422 kts 126°
2026-05-01 13:44 42.84073 -1.92986 22111 ft 425 kts 124°
2026-05-01 13:45 42.82477 -1.89584 22567 ft 428 kts 124°
2026-05-01 13:45 42.80873 -1.86158 23051 ft 430 kts 124°
2026-05-01 13:45 42.79262 -1.82716 23483 ft 432 kts 125°
2026-05-01 13:45 42.77640 -1.79255 23869 ft 435 kts 125°
2026-05-01 13:46 42.76098 -1.75693 24188 ft 439 kts 117°
2026-05-01 13:46 42.74997 -1.71796 24517 ft 444 kts 108°
2026-05-01 13:46 42.74429 -1.67706 24835 ft 449 kts 97°
2026-05-01 13:46 42.74407 -1.63447 25153 ft 453 kts 86°
2026-05-01 13:47 42.74907 -1.59201 25464 ft 457 kts 80°
2026-05-01 13:47 42.75509 -1.54945 25779 ft 459 kts 80°
2026-05-01 13:47 42.76105 -1.50670 26046 ft 461 kts 80°
2026-05-01 13:47 42.76698 -1.46371 26313 ft 464 kts 81°
2026-05-01 13:48 42.77292 -1.42044 26592 ft 466 kts 81°
2026-05-01 13:48 42.77885 -1.37698 26885 ft 468 kts 81°
2026-05-01 13:48 42.78477 -1.33328 27154 ft 470 kts 81°
2026-05-01 13:48 42.79068 -1.28942 27444 ft 472 kts 81°
2026-05-01 13:49 42.79662 -1.24542 27696 ft 474 kts 81°
2026-05-01 13:49 42.80261 -1.20125 27978 ft 475 kts 81°
2026-05-01 13:49 42.80863 -1.15692 28215 ft 477 kts 81°
2026-05-01 13:49 42.81464 -1.11243 28447 ft 479 kts 81°
2026-05-01 13:50 42.82066 -1.06760 28653 ft 482 kts 81°
2026-05-01 13:50 42.82666 -1.02266 28889 ft 483 kts 81°
2026-05-01 13:50 42.83064 -0.99293 29099 ft 482 kts 81°
2026-05-01 13:50 42.83665 -0.94800 29413 ft 482 kts 81°
2026-05-01 13:51 42.84265 -0.90315 29773 ft 481 kts 82°